﻿測定場所 (Monitoring sites),日付 (Measurement date),時間 (Measurement time),線量率 最大値 (max) μGy/h,線量率 最小値 (min) μGy/h,線量率 平均値 (average) μGy/h,
足立 (Adachi),2016-02-21,23:01～24:00,0.0352,0.0307,0.0334,
足立 (Adachi),2016-02-21,22:01～23:00,0.0359,0.0303,0.0334,
足立 (Adachi),2016-02-21,21:01～22:00,0.0357,0.0320,0.0336,
足立 (Adachi),2016-02-21,20:01～21:00,0.0359,0.0315,0.0336,
足立 (Adachi),2016-02-21,19:01～20:00,0.0363,0.0322,0.0337,
足立 (Adachi),2016-02-21,18:01～19:00,0.0356,0.0318,0.0334,
足立 (Adachi),2016-02-21,17:01～18:00,0.0362,0.0311,0.0335,
足立 (Adachi),2016-02-21,16:01～17:00,0.0361,0.0314,0.0332,
足立 (Adachi),2016-02-21,15:01～16:00,0.0358,0.0314,0.0333,
足立 (Adachi),2016-02-21,14:01～15:00,0.0349,0.0318,0.0333,
足立 (Adachi),2016-02-21,13:01～14:00,0.0351,0.0314,0.0333,
足立 (Adachi),2016-02-21,12:01～13:00,0.0352,0.0313,0.0335,
足立 (Adachi),2016-02-21,11:01～12:00,0.0352,0.0316,0.0334,
足立 (Adachi),2016-02-21,10:01～11:00,0.0358,0.0309,0.0330,
足立 (Adachi),2016-02-21,09:01～10:00,0.0362,0.0314,0.0333,
足立 (Adachi),2016-02-21,08:01～09:00,0.0350,0.0316,0.0333,
足立 (Adachi),2016-02-21,07:01～08:00,0.0361,0.0311,0.0335,
足立 (Adachi),2016-02-21,06:01～07:00,0.0364,0.0318,0.0336,
足立 (Adachi),2016-02-21,05:01～06:00,0.0354,0.0314,0.0337,
足立 (Adachi),2016-02-21,04:01～05:00,0.0356,0.0315,0.0337,
足立 (Adachi),2016-02-21,03:01～04:00,0.0364,0.0309,0.0335,
足立 (Adachi),2016-02-21,02:01～03:00,0.0368,0.0308,0.0337,
足立 (Adachi),2016-02-21,01:01～02:00,0.0361,0.0319,0.0344,
足立 (Adachi),2016-02-21,00:01～01:00,0.0419,0.0330,0.0372,
足立 (Adachi),2016-02-20,23:01～24:00,0.0498,0.0381,0.0439,
足立 (Adachi),2016-02-20,22:01～23:00,0.0510,0.0443,0.0476,
足立 (Adachi),2016-02-20,21:01～22:00,0.0485,0.0408,0.0447,
足立 (Adachi),2016-02-20,20:01～21:00,0.0525,0.0431,0.0476,
足立 (Adachi),2016-02-20,19:01～20:00,0.0537,0.0466,0.0498,
足立 (Adachi),2016-02-20,18:01～19:00,0.0551,0.0458,0.0490,
足立 (Adachi),2016-02-20,17:01～18:00,0.0557,0.0454,0.0489,
足立 (Adachi),2016-02-20,16:01～17:00,0.0500,0.0426,0.0465,
足立 (Adachi),2016-02-20,15:01～16:00,0.0465,0.0380,0.0432,
足立 (Adachi),2016-02-20,14:01～15:00,0.0460,0.0372,0.0423,
足立 (Adachi),2016-02-20,13:01～14:00,0.0423,0.0353,0.0383,
足立 (Adachi),2016-02-20,12:01～13:00,0.0411,0.0350,0.0374,
足立 (Adachi),2016-02-20,11:01～12:00,0.0414,0.0338,0.0368,
足立 (Adachi),2016-02-20,10:01～11:00,0.0366,0.0329,0.0347,
足立 (Adachi),2016-02-20,09:01～10:00,0.0365,0.0324,0.0349,
足立 (Adachi),2016-02-20,08:01～09:00,0.0363,0.0327,0.0346,
足立 (Adachi),2016-02-20,07:01～08:00,0.0370,0.0320,0.0345,
足立 (Adachi),2016-02-20,06:01～07:00,0.0369,0.0332,0.0347,
足立 (Adachi),2016-02-20,05:01～06:00,0.0361,0.0326,0.0345,
足立 (Adachi),2016-02-20,04:01～05:00,0.0364,0.0330,0.0346,
足立 (Adachi),2016-02-20,03:01～04:00,0.0368,0.0327,0.0348,
足立 (Adachi),2016-02-20,02:01～03:00,0.0365,0.0323,0.0347,
足立 (Adachi),2016-02-20,01:01～02:00,0.0369,0.0329,0.0348,
足立 (Adachi),2016-02-20,00:01～01:00,0.0374,0.0327,0.0349,
足立 (Adachi),2016-02-19,23:01～24:00,0.0364,0.0327,0.0344,
足立 (Adachi),2016-02-19,22:01～23:00,0.0362,0.0322,0.0339,
足立 (Adachi),2016-02-19,21:01～22:00,0.0358,0.0317,0.0340,
足立 (Adachi),2016-02-19,20:01～21:00,0.0359,0.0317,0.0339,
足立 (Adachi),2016-02-19,19:01～20:00,0.0358,0.0319,0.0339,
足立 (Adachi),2016-02-19,18:01～19:00,0.0358,0.0319,0.0336,
足立 (Adachi),2016-02-19,17:01～18:00,0.0355,0.0315,0.0336,
足立 (Adachi),2016-02-19,16:01～17:00,0.0365,0.0313,0.0334,
足立 (Adachi),2016-02-19,15:01～16:00,0.0355,0.0314,0.0336,
足立 (Adachi),2016-02-19,14:01～15:00,0.0361,0.0320,0.0338,
足立 (Adachi),2016-02-19,13:01～14:00,0.0354,0.0316,0.0339,
足立 (Adachi),2016-02-19,12:01～13:00,0.0369,0.0322,0.0341,
足立 (Adachi),2016-02-19,11:01～12:00,0.0368,0.0328,0.0348,
足立 (Adachi),2016-02-19,10:01～11:00,0.0376,0.0334,0.0353,
足立 (Adachi),2016-02-19,09:01～10:00,0.0367,0.0329,0.0350,
足立 (Adachi),2016-02-19,08:01～09:00,0.0371,0.0338,0.0353,
足立 (Adachi),2016-02-19,07:01～08:00,0.0363,0.0324,0.0349,
足立 (Adachi),2016-02-19,06:01～07:00,0.0370,0.0329,0.0349,
足立 (Adachi),2016-02-19,05:01～06:00,0.0374,0.0323,0.0355,
足立 (Adachi),2016-02-19,04:01～05:00,0.0368,0.0329,0.0349,
足立 (Adachi),2016-02-19,03:01～04:00,0.0366,0.0320,0.0343,
足立 (Adachi),2016-02-19,02:01～03:00,0.0373,0.0319,0.0345,
足立 (Adachi),2016-02-19,01:01～02:00,0.0365,0.0310,0.0341,
足立 (Adachi),2016-02-19,00:01～01:00,0.0362,0.0319,0.0338,
足立 (Adachi),2016-02-18,23:01～24:00,0.0361,0.0317,0.0340,
足立 (Adachi),2016-02-18,22:01～23:00,0.0369,0.0321,0.0343,
足立 (Adachi),2016-02-18,21:01～22:00,0.0353,0.0310,0.0338,
足立 (Adachi),2016-02-18,20:01～21:00,0.0365,0.0314,0.0339,
足立 (Adachi),2016-02-18,19:01～20:00,0.0356,0.0314,0.0334,
足立 (Adachi),2016-02-18,18:01～19:00,0.0355,0.0318,0.0333,
足立 (Adachi),2016-02-18,17:01～18:00,0.0353,0.0315,0.0333,
足立 (Adachi),2016-02-18,16:01～17:00,0.0359,0.0319,0.0337,
足立 (Adachi),2016-02-18,15:01～16:00,0.0357,0.0320,0.0339,
足立 (Adachi),2016-02-18,14:01～15:00,0.0365,0.0315,0.0340,
足立 (Adachi),2016-02-18,13:01～14:00,0.0368,0.0325,0.0341,
足立 (Adachi),2016-02-18,12:01～13:00,0.0377,0.0326,0.0342,
足立 (Adachi),2016-02-18,11:01～12:00,0.0359,0.0320,0.0342,
足立 (Adachi),2016-02-18,10:01～11:00,0.0376,0.0323,0.0343,
足立 (Adachi),2016-02-18,09:01～10:00,0.0364,0.0322,0.0343,
足立 (Adachi),2016-02-18,08:01～09:00,0.0366,0.0313,0.0341,
足立 (Adachi),2016-02-18,07:01～08:00,0.0359,0.0318,0.0340,
足立 (Adachi),2016-02-18,06:01～07:00,0.0360,0.0323,0.0341,
足立 (Adachi),2016-02-18,05:01～06:00,0.0354,0.0321,0.0340,
足立 (Adachi),2016-02-18,04:01～05:00,0.0364,0.0314,0.0341,
足立 (Adachi),2016-02-18,03:01～04:00,0.0355,0.0320,0.0340,
足立 (Adachi),2016-02-18,02:01～03:00,0.0362,0.0320,0.0338,
足立 (Adachi),2016-02-18,01:01～02:00,0.0362,0.0314,0.0340,
足立 (Adachi),2016-02-18,00:01～01:00,0.0353,0.0313,0.0338,
足立 (Adachi),2016-02-17,23:01～24:00,0.0360,0.0323,0.0342,
足立 (Adachi),2016-02-17,22:01～23:00,0.0364,0.0326,0.0343,
足立 (Adachi),2016-02-17,21:01～22:00,0.0354,0.0321,0.0339,
足立 (Adachi),2016-02-17,20:01～21:00,0.0357,0.0321,0.0340,
足立 (Adachi),2016-02-17,19:01～20:00,0.0363,0.0321,0.0343,
足立 (Adachi),2016-02-17,18:01～19:00,0.0367,0.0329,0.0346,
足立 (Adachi),2016-02-17,17:01～18:00,0.0363,0.0322,0.0346,
足立 (Adachi),2016-02-17,16:01～17:00,0.0367,0.0326,0.0346,
足立 (Adachi),2016-02-17,15:01～16:00,0.0373,0.0329,0.0348,
足立 (Adachi),2016-02-17,14:01～15:00,0.0369,0.0325,0.0347,
足立 (Adachi),2016-02-17,13:01～14:00,0.0361,0.0325,0.0342,
足立 (Adachi),2016-02-17,12:01～13:00,0.0361,0.0321,0.0338,
足立 (Adachi),2016-02-17,11:01～12:00,0.0372,0.0324,0.0338,
足立 (Adachi),2016-02-17,10:01～11:00,0.0369,0.0320,0.0343,
足立 (Adachi),2016-02-17,09:01～10:00,0.0362,0.0321,0.0340,
足立 (Adachi),2016-02-17,08:01～09:00,0.0358,0.0321,0.0340,
足立 (Adachi),2016-02-17,07:01～08:00,0.0364,0.0326,0.0344,
足立 (Adachi),2016-02-17,06:01～07:00,0.0373,0.0320,0.0343,
足立 (Adachi),2016-02-17,05:01～06:00,0.0366,0.0329,0.0350,
足立 (Adachi),2016-02-17,04:01～05:00,0.0373,0.0332,0.0350,
足立 (Adachi),2016-02-17,03:01～04:00,0.0366,0.0337,0.0350,
足立 (Adachi),2016-02-17,02:01～03:00,0.0366,0.0329,0.0351,
足立 (Adachi),2016-02-17,01:01～02:00,0.0367,0.0331,0.0349,
足立 (Adachi),2016-02-17,00:01～01:00,0.0366,0.0328,0.0348,
足立 (Adachi),2016-02-16,23:01～24:00,0.0366,0.0324,0.0347,
足立 (Adachi),2016-02-16,22:01～23:00,0.0360,0.0324,0.0340,
足立 (Adachi),2016-02-16,21:01～22:00,0.0356,0.0325,0.0340,
足立 (Adachi),2016-02-16,20:01～21:00,0.0359,0.0322,0.0337,
足立 (Adachi),2016-02-16,19:01～20:00,0.0359,0.0323,0.0340,
足立 (Adachi),2016-02-16,18:01～19:00,0.0362,0.0316,0.0338,
足立 (Adachi),2016-02-16,17:01～18:00,0.0364,0.0320,0.0339,
足立 (Adachi),2016-02-16,16:01～17:00,0.0354,0.0317,0.0338,
足立 (Adachi),2016-02-16,15:01～16:00,0.0363,0.0309,0.0341,
足立 (Adachi),2016-02-16,14:01～15:00,0.0365,0.0314,0.0338,
足立 (Adachi),2016-02-16,13:01～14:00,0.0360,0.0316,0.0339,
足立 (Adachi),2016-02-16,12:01～13:00,0.0359,0.0316,0.0338,
足立 (Adachi),2016-02-16,11:01～12:00,0.0359,0.0325,0.0341,
足立 (Adachi),2016-02-16,10:01～11:00,0.0358,0.0314,0.0337,
足立 (Adachi),2016-02-16,09:01～10:00,0.0362,0.0307,0.0336,
足立 (Adachi),2016-02-16,08:01～09:00,0.0348,0.0312,0.0330,
足立 (Adachi),2016-02-16,07:01～08:00,0.0351,0.0309,0.0329,
足立 (Adachi),2016-02-16,06:01～07:00,0.0351,0.0312,0.0333,
足立 (Adachi),2016-02-16,05:01～06:00,0.0356,0.0311,0.0333,
足立 (Adachi),2016-02-16,04:01～05:00,0.0356,0.0316,0.0337,
足立 (Adachi),2016-02-16,03:01～04:00,0.0367,0.0321,0.0342,
足立 (Adachi),2016-02-16,02:01～03:00,0.0364,0.0321,0.0343,
足立 (Adachi),2016-02-16,01:01～02:00,0.0370,0.0330,0.0346,
足立 (Adachi),2016-02-16,00:01～01:00,0.0363,0.0319,0.0345,
足立 (Adachi),2016-02-15,23:01～24:00,0.0364,0.0328,0.0345,
足立 (Adachi),2016-02-15,22:01～23:00,0.0363,0.0326,0.0346,
足立 (Adachi),2016-02-15,21:01～22:00,0.0376,0.0332,0.0350,
足立 (Adachi),2016-02-15,20:01～21:00,0.0379,0.0328,0.0350,
足立 (Adachi),2016-02-15,19:01～20:00,0.0388,0.0332,0.0358,
足立 (Adachi),2016-02-15,18:01～19:00,0.0389,0.0350,0.0364,
足立 (Adachi),2016-02-15,17:01～18:00,0.0420,0.0357,0.0387,
足立 (Adachi),2016-02-15,16:01～17:00,0.0457,0.0370,0.0411,
足立 (Adachi),2016-02-15,15:01～16:00,0.0471,0.0401,0.0440,
足立 (Adachi),2016-02-15,14:01～15:00,0.0478,0.0375,0.0413,
足立 (Adachi),2016-02-15,13:01～14:00,0.0474,0.0389,0.0431,
足立 (Adachi),2016-02-15,12:01～13:00,0.0522,0.0453,0.0479,
足立 (Adachi),2016-02-15,11:01～12:00,0.0537,0.0411,0.0485,
足立 (Adachi),2016-02-15,10:01～11:00,0.0433,0.0328,0.0354,
足立 (Adachi),2016-02-15,09:01～10:00,0.0373,0.0322,0.0345,
足立 (Adachi),2016-02-15,08:01～09:00,0.0363,0.0322,0.0345,
足立 (Adachi),2016-02-15,07:01～08:00,0.0356,0.0324,0.0341,
足立 (Adachi),2016-02-15,06:01～07:00,0.0366,0.0329,0.0347,
足立 (Adachi),2016-02-15,05:01～06:00,0.0383,0.0324,0.0350,
足立 (Adachi),2016-02-15,04:01～05:00,0.0370,0.0333,0.0348,
足立 (Adachi),2016-02-15,03:01～04:00,0.0366,0.0323,0.0347,
足立 (Adachi),2016-02-15,02:01～03:00,0.0372,0.0328,0.0349,
足立 (Adachi),2016-02-15,01:01～02:00,0.0361,0.0319,0.0346,
足立 (Adachi),2016-02-15,00:01～01:00,0.0363,0.0327,0.0346,
